星链-5964 (STARLINK-5964 )

导读

STARLINK-5964是美国太空探索技术公司Starlink星链互联网星座中的一颗卫星,于2023年3月24日发射入轨。星链星座旨在为全球用户提供低延迟、高速率的卫星互联网服务,该卫星属于星链组网进程中的常规发射任务,补充完善星座覆盖能力,助力全球互联网络布局推进。

基本信息
目录编号:
56009
目录名称:
STARLINK-5964
国际标识:
2023-042Z
轨道中心:
EARTH
卫星名称:
星链-5964
卫星全名:
星链-5964 (STARLINK-5964 )
卫星状态:
在轨 (已飞行1268 天)
发射日期:
2023-03-24 UTC
国别 :
美国 (US)
星等 :
--
该卫星已列入 空间交会检测服务 Space Conjunction Data Service (SCDS) ,当前飞行风险评估等级: 高风险
轨道信息
数据来源 国际轨道数据 AOE轨道数据
星历时间 2026-09-12T04:57:49+0800
18小时前
查看轨道信息
2026-09-06T21:00:00+0800
6天前
查看轨道信息
半长轴 6861.199km 6861.197km
偏心率 0.0001738 0.0001443
轨道倾角 43.005° 43.002°
近地点辐角 273.303° 281.600°
升交点赤经 91.566° 121.678°
平近点角 86.763° 242.904°
近地点 481.869km 482.069km
远地点 484.255km 484.051km
周期 94.267分钟 94.267分钟
每日圈数 15.275757 15.275765
详细信息
固有亮度:
5
最大亮度:
2.5
卫星平台:
Starlink v1.5
覆盖范围:
全球
运营商:
太空探索技术公司
运营商所在国:
美国
制造商(研发单位):
太空探索技术公司
制造商所在国:
美国
使用方式:
暂无
卫星简介
星链(Starlink)计划是由太空探索技术公司(SpaceX)提出的一个巨型低轨卫星互联网星座项目,计划在2019年至2024年间在太空搭建由约1.2万颗卫星组成的“星链”网络,其中1584颗将部署在地球上空550千米处的近地轨道,并从2020年开始工作。该卫星仍在工作。
2D轨道图
3D轨道图
轨道高度分析图
轨道倾角分析图
轨道综合分析图
查看轨道综合分析图
交会数据列表
事件ID 空间交会对象 最接近时刻(TCA) 交会距离 交会风险概率(CRP) 交会风险指数(CRI) 操作
CDM_260914-073205-600906-762021
2026-09-14T
07:32:56+0000
0.879 km
远距离
2.347438E-5 中风险 0.62
CDM_260914-183305-600906-164321
2026-09-14T
18:33:51+0000
0.942 km
远距离
2.049631E-5 中风险 0.61
CDM_260913-225505-600906-762021
2026-09-13T
22:55:06+0000
1.254 km
极远距离
6.901141E-6 低风险 0.52
CDM_260913-212005-600906-762022
2026-09-13T
21:20:56+0000
1.264 km
极远距离
6.727696E-6 低风险 0.52
CDM_260914-072005-600905-742622
OBJECT C (57426)
2026-09-14T
07:20:42+0000
2.044 km
极远距离
2.477782E-6 低风险 0.43
CDM_260914-055805-600906-762021
2026-09-14T
05:58:47+0000
2.384 km
极远距离
1.173482E-6 低风险 0.36
与全量物体交会距离演化趋势
与全量物体交会风险概率演化趋势